Weather History for Abbeville, LA

Change the Weather History Date:

Wednesday, August 7, 2013

  Actual Average (KARA) Record (KARA)
Temperature  
Mean Temperature 86 °F 83 °F  
Max Temperature 96 °F 92 °F 98 °F (1962)
Min Temperature 75 °F 74 °F 66 °F (1975)
Degree Days  
Heating Degree Days 0 0  
Month to date heating degree days 0  
Since 1 June heating degree days 0  
Since 1 July heating degree days 0  
Cooling Degree Days 20 18  
Month to date cooling degree days 126  
Year to date cooling degree days 1714  
Since 1 June cooling degree days 1144  
Growing Degree Days 36 (Base 50)    
Moisture  
Dew Point 72 °F    
Average Humidity 67    
Maximum Humidity 94    
Minimum Humidity 34    
Precipitation  
Precipitation 0.00 in 0.18 in 1.24 in (1982)
Month to date precipitation 1.21  
Year to date precipitation 36.98  
Sea Level Pressure  
Sea Level Pressure 29.94 in    
Wind  
Wind Speed 3 mph (SW)    
Max Wind Speed 12 mph    
Max Gust Speed -    
Visibility 9 miles    
Events      
T = Trace of Precipitation, MM = Missing Value Source: NWS Daily Summary

Daily Weather History Graph

Daily Weather History Graph

Search for Another Location

Airport:

Trip Planner

Search our weather history database for the weather conditions in past years. The results will help you decide how hot, cold, wet, or windy it might be!

Date:

Astronomy

Aug. 07, 2013 Rise Set
Actual Time 6:31 AM CDT 7:56 PM CDT
Civil Twilight 6:05 AM CDT 8:22 PM CDT
Nautical Twilight 5:35 AM CDT 8:52 PM CDT
Astronomical Twilight 5:03 AM CDT 9:24 PM CDT
Moon 7:12 AM CDT (8/7) 8:14 PM CDT (8/7)
Length of Visible Light 14h 16m
Length of Day
13h 25m
New Moon, 1% of the Moon is Illuminated
Aug 7
New Moon
Aug 14
First Quarter
Aug 20
Full
Aug 28
Last Quarter
Sep 5
New

Hourly Weather History & Observations

Time (CDT) Temp. Heat Index Dew Point Humidity Pressure Visibility Wind Dir Wind Speed Gust Speed Precip Events Conditions
12:15 AM 79.2 °F - 75.4 °F 88% 29.97 in 10.0 mi Calm Calm - N/A   Clear
12:35 AM 78.1 °F - 74.8 °F 90% 29.96 in 10.0 mi South 3.5 mph - N/A   Clear
12:55 AM 79.2 °F - 75.4 °F 88% 29.96 in 10.0 mi South 3.5 mph - N/A   Clear
1:15 AM 79.3 °F - 75.2 °F 87% 29.95 in 10.0 mi South 3.5 mph - N/A   Clear
1:35 AM 77.9 °F - 74.8 °F 90% 29.95 in 10.0 mi SSW 3.5 mph - N/A   Clear
1:55 AM 79.2 °F - 75.4 °F 88% 29.95 in 10.0 mi Calm Calm - N/A   Clear
2:15 AM 77.5 °F - 74.3 °F 90% 29.95 in 10.0 mi Calm Calm - N/A   Clear
2:35 AM 77.2 °F - 74.7 °F 92% 29.95 in 10.0 mi Calm Calm - N/A   Clear
2:55 AM 77.2 °F - 75.2 °F 94% 29.95 in 7.0 mi Calm Calm - N/A   Clear
3:15 AM 76.8 °F - 74.8 °F 94% 29.95 in 5.0 mi Calm Calm - N/A   Clear
3:35 AM 77.4 °F - 75.6 °F 94% 29.95 in 10.0 mi Calm Calm - N/A   Clear
3:55 AM 77.5 °F - 75.6 °F 94% 29.94 in 10.0 mi SSW 4.6 mph - N/A   Clear
4:15 AM 78.1 °F - 76.1 °F 94% 29.94 in 10.0 mi Calm Calm - N/A   Clear
4:35 AM 76.5 °F - 73.9 °F 92% 29.95 in 10.0 mi Calm Calm - N/A   Clear
4:55 AM 76.3 °F - 74.3 °F 94% 29.94 in 2.0 mi Calm Calm - N/A   Clear
5:15 AM 75.9 °F - 73.9 °F 94% 29.94 in 3.0 mi Calm Calm - N/A   Clear
5:35 AM 75.7 °F - 73.9 °F 94% 29.94 in 0.8 mi Calm Calm - N/A   Mist
5:55 AM 75.6 °F - 73.8 °F 94% 29.93 in 0.8 mi Calm Calm - N/A   Mist
6:15 AM 76.3 °F - 74.5 °F 94% 29.93 in 1.0 mi Calm Calm - N/A   Mist
6:35 AM 75.7 °F - 73.9 °F 94% 29.93 in 3.0 mi Calm Calm - N/A   Clear
6:55 AM 76.1 °F - 74.3 °F 94% 29.93 in 3.0 mi Calm Calm - N/A   Clear
7:15 AM 76.6 °F - 74.8 °F 94% 29.94 in 4.0 mi Calm Calm - N/A   Clear
7:35 AM 79.0 °F - 77.2 °F 94% 29.94 in 10.0 mi Calm Calm - N/A   Clear
7:55 AM 80.6 °F 88.1 °F 78.8 °F 94% 29.95 in 10.0 mi Calm Calm - N/A   Clear
8:15 AM 82.0 °F 91.0 °F 78.3 °F 88% 29.95 in 10.0 mi Calm Calm - N/A   Clear
8:35 AM 84.2 °F 94.5 °F 77.4 °F 80% 29.96 in 10.0 mi SSW 3.5 mph - N/A   Clear
8:55 AM 86.2 °F 96.9 °F 76.6 °F 73% 29.97 in 10.0 mi SW 3.5 mph - N/A   Clear
9:15 AM 87.4 °F 97.7 °F 75.6 °F 68% 29.97 in 10.0 mi SW 5.8 mph - N/A   Scattered Clouds
9:35 AM 88.3 °F 98.4 °F 75.0 °F 65% 29.97 in 10.0 mi SW 8.1 mph - N/A   Mostly Cloudy
9:55 AM 90.0 °F 100.2 °F 74.7 °F 61% 29.98 in 10.0 mi Calm Calm - N/A   Overcast
10:15 AM 89.2 °F 96.4 °F 72.0 °F 57% 29.98 in 10.0 mi SW 6.9 mph - N/A   Mostly Cloudy
10:35 AM 90.0 °F 96.9 °F 71.8 °F 55% 29.98 in 10.0 mi West 3.5 mph - N/A   Scattered Clouds
10:55 AM 89.1 °F 93.7 °F 69.6 °F 52% 29.99 in 10.0 mi West 3.5 mph - N/A   Scattered Clouds
11:15 AM 92.1 °F 97.2 °F 69.1 °F 47% 29.99 in 10.0 mi West 6.9 mph - N/A   Scattered Clouds
11:35 AM 93.0 °F 97.4 °F 68.0 °F 44% 29.99 in 10.0 mi West 5.8 mph - N/A   Mostly Cloudy
11:55 AM 92.7 °F 96.2 °F 66.9 °F 43% 29.99 in 10.0 mi WSW 9.2 mph - N/A   Mostly Cloudy
12:15 PM 94.1 °F 97.3 °F 66.7 °F 40% 29.98 in 10.0 mi WSW 6.9 mph - N/A   Mostly Cloudy
12:35 PM 93.6 °F 97.4 °F 67.3 °F 42% 29.98 in 10.0 mi SW 6.9 mph - N/A   Scattered Clouds
12:55 PM 94.3 °F 97.7 °F 66.4 °F 40% 29.97 in 10.0 mi Calm Calm - N/A   Mostly Cloudy
1:15 PM 94.5 °F 97.5 °F 66.2 °F 39% 29.97 in 10.0 mi SW 4.6 mph - N/A   Overcast
1:35 PM 93.9 °F 97.0 °F 66.6 °F 40% 29.96 in 10.0 mi SSW 4.6 mph - N/A   Mostly Cloudy
1:55 PM 95.9 °F 97.5 °F 63.3 °F 34% 29.96 in 10.0 mi South 3.5 mph - N/A   Mostly Cloudy
2:15 PM 94.1 °F 97.3 °F 66.2 °F 40% 29.95 in 10.0 mi SW 6.9 mph - N/A   Scattered Clouds
2:35 PM 94.6 °F 99.4 °F 68.2 °F 42% 29.94 in 10.0 mi SW 9.2 mph - N/A   Mostly Cloudy
2:55 PM 95.0 °F 98.5 °F 66.2 °F 39% 29.94 in 10.0 mi SW 6.9 mph - N/A   Mostly Cloudy
3:15 PM 96.1 °F 98.8 °F 65.3 °F 36% 29.94 in 10.0 mi South 6.9 mph - N/A   Scattered Clouds
3:35 PM 96.8 °F 100.1 °F 66.0 °F 36% 29.93 in 10.0 mi SW 9.2 mph - N/A   Scattered Clouds
3:55 PM 96.1 °F 98.3 °F 64.4 °F 35% 29.92 in 10.0 mi SW 5.8 mph - N/A   Scattered Clouds
4:15 PM 96.8 °F 99.0 °F 64.0 °F 34% 29.91 in 10.0 mi SW 6.9 mph - N/A   Clear
4:35 PM 95.9 °F 98.0 °F 64.6 °F 35% 29.90 in 10.0 mi SSW 6.9 mph - N/A   Clear
4:55 PM 95.9 °F 99.0 °F 65.8 °F 37% 29.90 in 10.0 mi SW 6.9 mph - N/A   Clear
5:15 PM 95.2 °F 98.3 °F 65.7 °F 38% 29.90 in 10.0 mi SW 9.2 mph - N/A   Clear
5:35 PM 95.0 °F 97.9 °F 65.8 °F 38% 29.89 in 10.0 mi SSW 9.2 mph - N/A   Clear
5:55 PM 94.1 °F 96.9 °F 66.0 °F 39% 29.89 in 10.0 mi SW 11.5 mph - N/A   Clear
6:15 PM 93.2 °F 97.2 °F 67.8 °F 43% 29.89 in 10.0 mi SW 10.4 mph - N/A   Clear
6:35 PM 91.9 °F 95.9 °F 68.0 °F 45% 29.89 in 10.0 mi SW 10.4 mph - N/A   Clear
6:55 PM 90.9 °F 95.3 °F 68.5 °F 48% 29.89 in 10.0 mi SW 8.1 mph - N/A   Clear
7:15 PM 89.6 °F 93.9 °F 68.9 °F 50% 29.90 in 10.0 mi SW 5.8 mph - N/A   Clear
7:35 PM 88.2 °F 92.5 °F 68.9 °F 53% 29.90 in 10.0 mi SW 6.9 mph - N/A   Clear
7:55 PM 86.9 °F 91.7 °F 70.0 °F 57% 29.90 in 10.0 mi SW 6.9 mph - N/A   Clear
8:15 PM 85.8 °F 91.1 °F 71.1 °F 61% 29.90 in 10.0 mi SSW 4.6 mph - N/A   Clear
8:35 PM 85.1 °F 91.1 °F 72.3 °F 65% 29.91 in 10.0 mi South 5.8 mph - N/A   Clear
8:55 PM 84.7 °F 91.0 °F 72.7 °F 67% 29.91 in 10.0 mi SSW 4.6 mph - N/A   Clear
9:15 PM 83.8 °F 90.4 °F 73.4 °F 71% 29.92 in 10.0 mi South 3.5 mph - N/A   Clear
9:35 PM 83.5 °F 90.0 °F 73.4 °F 72% 29.92 in 10.0 mi SSW 3.5 mph - N/A   Clear
9:55 PM 82.9 °F 89.1 °F 73.4 °F 73% 29.93 in 10.0 mi SSW 3.5 mph - N/A   Clear
10:15 PM 82.8 °F 89.0 °F 73.8 °F 74% 29.93 in 10.0 mi SSW 3.5 mph - N/A   Clear
10:35 PM 82.2 °F 88.5 °F 74.3 °F 77% 29.94 in 10.0 mi SSW 4.6 mph - N/A   Clear
10:55 PM 81.7 °F 88.0 °F 75.0 °F 80% 29.94 in 10.0 mi SSW 4.6 mph - N/A   Clear
11:15 PM 81.5 °F 87.8 °F 75.2 °F 81% 29.94 in 10.0 mi SW 3.5 mph - N/A   Clear
11:35 PM 81.0 °F 87.1 °F 75.6 °F 84% 29.93 in 10.0 mi SW 3.5 mph - N/A   Clear
11:55 PM 80.8 °F 86.9 °F 75.7 °F 85% 29.93 in 10.0 mi SSW 3.5 mph - N/A   Clear